Time,TemperatureF,DewpointF,PressureIn,WindDirection,WindDirectionDegrees,WindSpeedMPH,WindSpeedGustMPH,Humidity,HourlyPrecipIn,Conditions,Clouds,dailyrainin,SoftwareType,DateUTC
2013-02-18 00:02:00,35.0,22.0,30.08,ESE,117,0.0,3.0,59,0.00,,,0.00,,2013-02-18 06:02:00,
2013-02-18 00:11:00,35.0,22.0,30.08,ESE,117,0.0,3.0,59,0.00,,,0.00,,2013-02-18 06:11:00,
2013-02-18 00:21:00,35.0,22.0,30.08,SE,138,0.0,2.0,59,0.00,,,0.00,,2013-02-18 06:21:00,
2013-02-18 00:32:00,36.0,23.0,30.08,SSE,150,2.0,2.0,58,0.00,,,0.00,,2013-02-18 06:32:00,
2013-02-18 00:41:00,36.0,23.0,30.07,South,172,1.0,3.0,58,0.00,,,0.00,,2013-02-18 06:41:00,
2013-02-18 00:52:00,36.0,23.0,30.07,South,172,1.0,3.0,58,0.00,,,0.00,,2013-02-18 06:52:00,
2013-02-18 01:01:00,36.0,23.0,30.06,South,184,0.0,1.0,58,0.00,,,0.00,,2013-02-18 07:01:00,
2013-02-18 01:11:00,36.0,23.0,30.06,South,184,0.0,1.0,58,0.00,,,0.00,,2013-02-18 07:11:00,
2013-02-18 01:21:00,36.0,23.0,30.05,SSE,162,1.0,2.0,59,0.00,,,0.00,,2013-02-18 07:21:00,
2013-02-18 01:32:00,36.0,23.0,30.04,SSW,208,4.0,5.0,58,0.00,,,0.00,,2013-02-18 07:32:00,
2013-02-18 01:42:00,36.0,23.0,30.04,SSW,208,4.0,5.0,58,0.00,,,0.00,,2013-02-18 07:42:00,
2013-02-18 01:52:00,36.0,23.0,30.04,South,190,2.0,3.0,58,0.00,,,0.00,,2013-02-18 07:52:00,
2013-02-18 02:01:00,36.0,23.0,30.03,SE,144,2.0,3.0,59,0.00,,,0.00,,2013-02-18 08:01:00,
2013-02-18 02:11:00,36.0,23.0,30.03,SE,144,2.0,3.0,59,0.00,,,0.00,,2013-02-18 08:11:00,
2013-02-18 02:21:00,36.0,23.0,30.03,SE,141,0.0,1.0,58,0.00,,,0.00,,2013-02-18 08:21:00,
2013-02-18 02:32:00,36.0,23.0,30.03,ESE,104,3.0,3.0,59,0.00,,,0.00,,2013-02-18 08:32:00,
2013-02-18 02:42:00,36.0,23.0,30.03,ESE,104,3.0,3.0,59,0.00,,,0.00,,2013-02-18 08:42:00,
2013-02-18 02:52:00,36.0,23.0,30.02,SE,136,2.0,5.0,58,0.00,,,0.00,,2013-02-18 08:52:00,
2013-02-18 03:02:00,36.0,22.0,30.02,SE,142,2.0,3.0,57,0.00,,,0.00,,2013-02-18 09:02:00,
2013-02-18 03:11:00,36.0,22.0,30.02,SE,142,2.0,3.0,57,0.00,,,0.00,,2013-02-18 09:11:00,
2013-02-18 03:22:00,36.0,23.0,30.01,ESE,119,1.0,2.0,58,0.00,,,0.00,,2013-02-18 09:22:00,
2013-02-18 03:31:00,36.0,23.0,30.01,SE,124,2.0,3.0,59,0.00,,,0.00,,2013-02-18 09:31:00,
2013-02-18 03:42:00,36.0,23.0,30.01,SE,124,2.0,3.0,59,0.00,,,0.00,,2013-02-18 09:42:00,
2013-02-18 03:52:00,36.0,23.0,30.00,SE,146,1.0,2.0,60,0.00,,,0.00,,2013-02-18 09:52:00,
2013-02-18 04:01:00,36.0,23.0,30.00,SE,146,1.0,2.0,60,0.00,,,0.00,,2013-02-18 10:01:00,
2013-02-18 04:11:00,36.0,23.0,30.00,SE,146,1.0,2.0,60,0.00,,,0.00,,2013-02-18 10:11:00,
2013-02-18 04:21:00,35.0,23.0,30.00,SE,137,0.0,1.0,62,0.00,,,0.00,,2013-02-18 10:21:00,
2013-02-18 04:31:00,35.0,23.0,30.00,South,178,1.0,2.0,62,0.00,,,0.00,,2013-02-18 10:31:00,
2013-02-18 04:42:00,35.0,23.0,30.00,South,178,1.0,2.0,62,0.00,,,0.00,,2013-02-18 10:42:00,
2013-02-18 04:53:00,35.0,23.0,30.01,SE,139,0.0,2.0,62,0.00,,,0.00,,2013-02-18 10:53:00,
2013-02-18 05:01:00,36.0,25.0,30.01,SSE,159,0.0,2.0,63,0.00,,,0.00,,2013-02-18 11:01:00,
2013-02-18 05:11:00,36.0,25.0,30.01,SSE,159,0.0,2.0,63,0.00,,,0.00,,2013-02-18 11:11:00,
2013-02-18 05:22:00,36.0,25.0,30.00,SSE,154,2.0,2.0,63,0.00,,,0.00,,2013-02-18 11:22:00,
2013-02-18 05:32:00,36.0,25.0,30.00,South,176,3.0,3.0,63,0.00,,,0.00,,2013-02-18 11:32:00,
2013-02-18 05:42:00,36.0,25.0,30.00,South,176,3.0,3.0,63,0.00,,,0.00,,2013-02-18 11:42:00,
2013-02-18 05:53:00,36.0,25.0,30.00,SSE,153,0.0,1.0,65,0.00,,,0.00,,2013-02-18 11:53:00,
2013-02-18 06:02:00,36.0,25.0,30.00,South,176,0.0,1.0,65,0.00,,,0.00,,2013-02-18 12:02:00,
2013-02-18 06:11:00,36.0,25.0,30.00,South,176,0.0,1.0,65,0.00,,,0.00,,2013-02-18 12:11:00,
2013-02-18 06:22:00,36.0,26.0,29.99,SE,138,0.0,2.0,66,0.00,,,0.00,,2013-02-18 12:22:00,
2013-02-18 06:32:00,36.0,26.0,29.99,SE,126,1.0,2.0,66,0.00,,,0.00,,2013-02-18 12:32:00,
2013-02-18 06:42:00,36.0,26.0,29.99,SE,126,1.0,2.0,66,0.00,,,0.00,,2013-02-18 12:42:00,
2013-02-18 06:53:00,36.0,26.0,29.99,SSE,157,2.0,2.0,68,0.00,,,0.00,,2013-02-18 12:53:00,
2013-02-18 07:02:00,36.0,27.0,29.99,SSE,153,0.0,3.0,69,0.00,,,0.00,,2013-02-18 13:02:00,
2013-02-18 07:12:00,36.0,27.0,29.99,SSE,153,0.0,3.0,69,0.00,,,0.00,,2013-02-18 13:12:00,
2013-02-18 07:22:00,37.0,28.0,29.98,SSE,152,0.0,3.0,70,0.00,,,0.00,,2013-02-18 13:22:00,
2013-02-18 07:32:00,38.0,29.0,29.98,South,169,3.0,3.0,71,0.00,,,0.00,,2013-02-18 13:32:00,
2013-02-18 07:42:00,38.0,29.0,29.98,South,169,3.0,3.0,71,0.00,,,0.00,,2013-02-18 13:42:00,
2013-02-18 07:53:00,40.0,31.0,29.98,SSE,164,3.0,8.0,70,0.00,,,0.00,,2013-02-18 13:53:00,
2013-02-18 08:02:00,41.0,32.0,29.99,SE,126,1.0,1.0,69,0.00,,,0.00,,2013-02-18 14:02:00,
2013-02-18 08:11:00,41.0,32.0,29.99,SE,126,1.0,1.0,69,0.00,,,0.00,,2013-02-18 14:11:00,
2013-02-18 08:22:00,42.0,32.0,29.98,SSE,162,3.0,3.0,68,0.00,,,0.00,,2013-02-18 14:22:00,
2013-02-18 08:32:00,42.0,32.0,29.98,SSE,158,3.0,3.0,68,0.00,,,0.00,,2013-02-18 14:32:00,
2013-02-18 08:42:00,42.0,32.0,29.98,SSE,158,3.0,3.0,68,0.00,,,0.00,,2013-02-18 14:42:00,
2013-02-18 08:53:00,45.0,35.0,29.98,SE,138,4.0,5.0,68,0.00,,,0.00,,2013-02-18 14:53:00,
2013-02-18 09:02:00,46.0,36.0,29.96,SSE,152,1.0,5.0,68,0.00,,,0.00,,2013-02-18 15:02:00,
2013-02-18 09:11:00,46.0,36.0,29.96,SSE,152,1.0,5.0,68,0.00,,,0.00,,2013-02-18 15:11:00,
2013-02-18 09:22:00,49.0,38.0,29.96,South,175,4.0,13.0,66,0.00,,,0.00,,2013-02-18 15:22:00,
2013-02-18 09:42:00,49.0,38.0,29.96,South,175,4.0,13.0,66,0.00,,,0.00,,2013-02-18 15:42:00,
2013-02-18 09:52:00,50.0,39.0,29.95,SSW,206,3.0,3.0,65,0.00,,,0.00,,2013-02-18 15:52:00,
2013-02-18 10:02:00,51.0,40.0,29.93,SSW,192,3.0,6.0,66,0.00,,,0.00,,2013-02-18 16:02:00,
2013-02-18 10:12:00,51.0,40.0,29.93,SSW,192,3.0,6.0,66,0.00,,,0.00,,2013-02-18 16:12:00,
2013-02-18 10:22:00,52.0,40.0,29.92,South,178,4.0,14.0,64,0.00,,,0.00,,2013-02-18 16:22:00,
2013-02-18 10:32:00,53.0,40.0,29.91,SSE,160,4.0,15.0,62,0.00,,,0.00,,2013-02-18 16:32:00,
2013-02-18 10:42:00,53.0,40.0,29.91,SSE,160,4.0,15.0,62,0.00,,,0.00,,2013-02-18 16:42:00,
2013-02-18 10:53:00,53.0,41.0,29.91,SE,128,5.0,5.0,63,0.00,,,0.00,,2013-02-18 16:53:00,
2013-02-18 11:03:00,54.0,42.0,29.91,South,171,3.0,4.0,63,0.00,,,0.00,,2013-02-18 17:03:00,
2013-02-18 11:12:00,54.0,42.0,29.91,South,171,3.0,4.0,63,0.00,,,0.00,,2013-02-18 17:12:00,
2013-02-18 11:22:00,56.0,42.0,29.90,SSW,201,3.0,5.0,59,0.00,,,0.00,,2013-02-18 17:22:00,
2013-02-18 11:32:00,56.0,42.0,29.89,ESE,119,12.0,15.0,59,0.00,,,0.00,,2013-02-18 17:32:00,
2013-02-18 11:42:00,56.0,42.0,29.89,ESE,119,12.0,15.0,59,0.00,,,0.00,,2013-02-18 17:42:00,
2013-02-18 11:53:00,58.0,43.0,29.89,South,175,5.0,17.0,57,0.00,,,0.00,,2013-02-18 17:53:00,
2013-02-18 12:02:00,58.0,42.0,29.87,SE,146,9.0,14.0,56,0.00,,,0.00,,2013-02-18 18:02:00,
2013-02-18 12:12:00,58.0,42.0,29.87,SE,146,9.0,14.0,56,0.00,,,0.00,,2013-02-18 18:12:00,
2013-02-18 12:22:00,59.0,41.0,29.87,SW,215,8.0,18.0,52,0.00,,,0.00,,2013-02-18 18:22:00,
2013-02-18 12:32:00,59.0,40.0,29.85,SSE,159,14.0,14.0,50,0.00,,,0.00,,2013-02-18 18:32:00,
2013-02-18 12:42:00,59.0,40.0,29.85,SSE,159,14.0,14.0,50,0.00,,,0.00,,2013-02-18 18:42:00,
2013-02-18 12:53:00,60.0,41.0,29.85,South,183,3.0,3.0,50,0.00,,,0.00,,2013-02-18 18:53:00,
2013-02-18 13:02:00,59.0,39.0,29.83,SSW,194,5.0,9.0,48,0.00,,,0.00,,2013-02-18 19:02:00,
2013-02-18 13:12:00,59.0,39.0,29.83,SSW,194,5.0,9.0,48,0.00,,,0.00,,2013-02-18 19:12:00,
2013-02-18 13:22:00,59.0,39.0,29.82,South,182,3.0,5.0,47,0.00,,,0.00,,2013-02-18 19:22:00,
2013-02-18 13:33:00,59.0,37.0,29.81,South,169,10.0,10.0,43,0.00,,,0.00,,2013-02-18 19:33:00,
2013-02-18 13:42:00,59.0,37.0,29.81,South,169,10.0,10.0,43,0.00,,,0.00,,2013-02-18 19:42:00,
2013-02-18 13:53:00,60.0,35.0,29.79,South,173,5.0,9.0,39,0.00,,,0.00,,2013-02-18 19:53:00,
2013-02-18 14:02:00,59.0,34.0,29.79,SE,136,3.0,5.0,39,0.00,,,0.00,,2013-02-18 20:02:00,
2013-02-18 14:12:00,59.0,34.0,29.79,SE,136,3.0,5.0,39,0.00,,,0.00,,2013-02-18 20:12:00,
2013-02-18 14:23:00,58.0,34.0,29.79,ESE,118,8.0,14.0,41,0.00,,,0.00,,2013-02-18 20:23:00,
2013-02-18 14:33:00,58.0,34.0,29.79,SE,131,5.0,15.0,40,0.00,,,0.00,,2013-02-18 20:33:00,
2013-02-18 14:42:00,58.0,34.0,29.79,SE,131,5.0,15.0,40,0.00,,,0.00,,2013-02-18 20:42:00,
2013-02-18 14:53:00,58.0,34.0,29.79,SE,143,4.0,16.0,41,0.00,,,0.00,,2013-02-18 20:53:00,
2013-02-18 15:02:00,58.0,36.0,29.77,South,177,9.0,17.0,44,0.00,,,0.00,,2013-02-18 21:02:00,
2013-02-18 15:12:00,58.0,36.0,29.77,South,177,9.0,17.0,44,0.00,,,0.00,,2013-02-18 21:12:00,
2013-02-18 15:22:00,56.0,39.0,29.78,South,187,10.0,17.0,52,0.00,,,0.00,,2013-02-18 21:22:00,
2013-02-18 15:32:00,54.0,40.0,29.79,SSE,164,5.0,8.0,59,0.00,,,0.00,,2013-02-18 21:32:00,
2013-02-18 15:42:00,54.0,40.0,29.79,SSE,164,5.0,8.0,59,0.00,,,0.00,,2013-02-18 21:42:00,
2013-02-18 15:53:00,52.0,42.0,29.78,SSE,157,6.0,8.0,69,0.02,,,0.02,,2013-02-18 21:53:00,
2013-02-18 16:02:00,51.0,42.0,29.78,SE,144,3.0,5.0,72,0.02,,,0.02,,2013-02-18 22:02:00,
2013-02-18 16:12:00,50.0,43.0,29.75,SE,124,2.0,4.0,78,0.04,,,0.04,,2013-02-18 22:12:00,
2013-02-18 16:22:00,50.0,43.0,29.75,SE,124,2.0,4.0,78,0.04,,,0.04,,2013-02-18 22:22:00,
2013-02-18 16:33:00,50.0,44.0,29.76,South,182,2.0,4.0,79,0.05,,,0.05,,2013-02-18 22:33:00,
2013-02-18 16:42:00,50.0,44.0,29.76,South,182,2.0,4.0,79,0.05,,,0.05,,2013-02-18 22:42:00,
2013-02-18 16:53:00,50.0,43.0,29.74,SSE,148,2.0,4.0,77,0.05,,,0.07,,2013-02-18 22:53:00,
2013-02-18 17:02:00,50.0,43.0,29.72,South,185,6.0,9.0,78,0.06,,,0.08,,2013-02-18 23:02:00,
2013-02-18 17:12:00,50.0,43.0,29.72,South,185,6.0,9.0,78,0.06,,,0.08,,2013-02-18 23:12:00,
2013-02-18 17:22:00,51.0,43.0,29.70,South,173,5.0,9.0,74,0.04,,,0.08,,2013-02-18 23:22:00,
2013-02-18 17:33:00,51.0,43.0,29.70,South,173,5.0,9.0,74,0.04,,,0.08,,2013-02-18 23:33:00,
2013-02-18 17:42:00,51.0,43.0,29.70,South,173,5.0,9.0,74,0.04,,,0.08,,2013-02-18 23:42:00,
2013-02-18 17:53:00,51.0,43.0,29.70,SSE,150,3.0,3.0,75,0.03,,,0.08,,2013-02-18 23:53:00,
2013-02-18 18:02:00,50.0,44.0,29.70,SSE,157,5.0,8.0,79,0.02,,,0.09,,2013-02-19 00:02:00,
2013-02-18 18:12:00,50.0,44.0,29.70,SSE,157,5.0,8.0,79,0.02,,,0.09,,2013-02-19 00:12:00,
2013-02-18 18:22:00,49.0,44.0,29.69,ESE,119,6.0,9.0,84,0.04,,,0.12,,2013-02-19 00:22:00,
2013-02-18 18:34:00,49.0,45.0,29.70,ESE,121,5.0,6.0,85,0.04,,,0.12,,2013-02-19 00:34:00,
2013-02-18 18:43:00,49.0,45.0,29.70,ESE,121,5.0,6.0,85,0.04,,,0.12,,2013-02-19 00:43:00,
2013-02-18 18:54:00,49.0,45.0,29.68,South,175,6.0,8.0,87,0.09,,,0.17,,2013-02-19 00:54:00,
2013-02-18 19:03:00,48.0,45.0,29.67,SSE,154,3.0,10.0,88,0.10,,,0.19,,2013-02-19 01:03:00,
2013-02-18 19:13:00,48.0,45.0,29.67,SSE,154,3.0,10.0,88,0.10,,,0.19,,2013-02-19 01:13:00,
2013-02-18 19:23:00,48.0,45.0,29.68,ESE,121,3.0,10.0,89,0.14,,,0.26,,2013-02-19 01:23:00,
2013-02-18 19:33:00,48.0,45.0,29.66,SE,127,3.0,9.0,90,0.16,,,0.28,,2013-02-19 01:33:00,
2013-02-18 19:43:00,48.0,45.0,29.66,SE,127,3.0,9.0,90,0.16,,,0.28,,2013-02-19 01:43:00,
2013-02-18 20:02:00,48.0,46.0,29.64,SSE,156,3.0,10.0,92,0.10,,,0.29,,2013-02-19 02:02:00,
2013-02-18 20:13:00,48.0,46.0,29.64,SSE,156,3.0,10.0,92,0.10,,,0.29,,2013-02-19 02:13:00,
2013-02-18 20:23:00,48.0,46.0,29.63,SE,135,1.0,5.0,92,0.08,,,0.34,,2013-02-19 02:23:00,
2013-02-18 20:34:00,48.0,46.0,29.64,South,172,10.0,12.0,92,0.10,,,0.38,,2013-02-19 02:34:00,
2013-02-18 20:42:00,48.0,46.0,29.64,South,172,10.0,12.0,92,0.10,,,0.38,,2013-02-19 02:42:00,
2013-02-18 20:55:00,48.0,46.0,29.62,SSW,207,3.0,8.0,92,0.20,,,0.48,,2013-02-19 02:55:00,
2013-02-18 21:05:00,48.0,46.0,29.65,ESE,119,8.0,10.0,92,0.27,,,0.54,,2013-02-19 03:05:00,
2013-02-18 21:23:00,48.0,46.0,29.65,SSW,205,4.0,9.0,93,0.30,,,0.59,,2013-02-19 03:23:00,
2013-02-18 21:33:00,48.0,46.0,29.57,SSE,147,5.0,8.0,94,0.25,,,0.62,,2013-02-19 03:33:00,
2013-02-18 21:43:00,48.0,46.0,29.57,SSE,147,5.0,8.0,94,0.25,,,0.62,,2013-02-19 03:43:00,
2013-02-18 21:53:00,48.0,46.0,29.60,South,170,5.0,6.0,94,0.15,,,0.63,,2013-02-19 03:53:00,
2013-02-18 22:02:00,48.0,46.0,29.62,SW,229,8.0,8.0,94,0.10,,,0.64,,2013-02-19 04:02:00,
2013-02-18 22:13:00,48.0,46.0,29.62,SW,229,8.0,8.0,94,0.10,,,0.64,,2013-02-19 04:13:00,
2013-02-18 22:23:00,49.0,47.0,29.62,SSE,152,10.0,10.0,94,0.06,,,0.65,,2013-02-19 04:23:00,
2013-02-18 22:33:00,49.0,47.0,29.63,SSE,167,4.0,4.0,94,0.04,,,0.66,,2013-02-19 04:33:00,
2013-02-18 22:43:00,49.0,47.0,29.63,SSE,167,4.0,4.0,94,0.04,,,0.66,,2013-02-19 04:43:00,
2013-02-18 22:52:00,45.0,42.0,29.66,West,279,17.0,19.0,89,0.05,,,0.68,,2013-02-19 04:52:00,
2013-02-18 23:02:00,43.0,40.0,29.70,WNW,287,6.0,14.0,88,0.05,,,0.69,,2013-02-19 05:02:00,
2013-02-18 23:12:00,43.0,40.0,29.70,WNW,287,6.0,14.0,88,0.05,,,0.69,,2013-02-19 05:12:00,
2013-02-18 23:22:00,42.0,39.0,29.71,NW,304,5.0,9.0,89,0.04,,,0.69,,2013-02-19 05:22:00,
2013-02-18 23:32:00,42.0,39.0,29.72,West,270,9.0,13.0,89,0.03,,,0.69,,2013-02-19 05:32:00,
2013-02-18 23:43:00,42.0,39.0,29.72,West,270,9.0,13.0,89,0.03,,,0.69,,2013-02-19 05:43:00,
2013-02-18 23:52:00,41.0,37.0,29.75,West,277,4.0,9.0,84,0.01,,,0.69,,2013-02-19 05:52:00,